• In Belarus
  • List of Countries
  • For 7 days
  • Water Temperature
  • Satellite Maps
  • Weather Map
  • Weather Widgets
  • user-avatar
    Login

    Hourly Weather Biskira

    Today, 21 January, Monday

    Time Temperature Precipitation Wind Pressure Humidity
    00:00 +10°C° 0 mm 2 mps 748 mmHg 69%
    01:00 +10°C° 0 mm 2 mps 748 mmHg 71%
    02:00 +10°C° 0 mm 1 mps 748 mmHg 73%
    03:00 +10°C° 0 mm 1 mps 747 mmHg 75%
    04:00 +10°C° 0 mm 1 mps 748 mmHg 74%
    05:00 +10°C° 0 mm 2 mps 748 mmHg 73%
    06:00 +10°C° 0 mm 2 mps 748 mmHg 74%
    07:00 +11°C° 0 mm 4 mps 748 mmHg 72%
    08:00 +10°C° 0 mm 5 mps 748 mmHg 70%
    09:00 +11°C° 0 mm 6 mps 748 mmHg 68%
    10:00 +14°C° 0 mm 6 mps 749 mmHg 60%
    11:00 +15°C° 0 mm 7 mps 749 mmHg 51%
    12:00 +16°C° 0 mm 8 mps 749 mmHg 43%
    13:00 +16°C° 0 mm 8 mps 749 mmHg 41%
    14:00 +17°C° 0 mm 8 mps 749 mmHg 39%
    15:00 +17°C° 0 mm 8 mps 749 mmHg 36%
    16:00 +16°C° 0 mm 7 mps 749 mmHg 40%
    17:00 +15°C° 0 mm 6 mps 749 mmHg 43%
    18:00 +14°C° 0 mm 6 mps 750 mmHg 47%
    19:00 +13°C° 0 mm 5 mps 750 mmHg 49%
    20:00 +13°C° 0 mm 5 mps 751 mmHg 52%
    21:00 +12°C° 0 mm 5 mps 751 mmHg 54%
    22:00 +12°C° 0 mm 5 mps 751 mmHg 56%
    23:00 +10°C° 0 mm 5 mps 751 mmHg 58%

    Tomorrow, 22 January, Tuesday

    Time Temperature Precipitation Wind Pressure Humidity
    00:00 +10°C° 0 mm 5 mps 751 mmHg 60%
    01:00 +11°C° 0 mm 4 mps 751 mmHg 61%
    02:00 +10°C° 0 mm 4 mps 751 mmHg 61%
    03:00 +10°C° 0 mm 4 mps 751 mmHg 62%
    04:00 +10°C° 0 mm 4 mps 751 mmHg 62%
    05:00 +8°C° 0 mm 4 mps 751 mmHg 63%
    06:00 +8°C° 0 mm 4 mps 751 mmHg 63%
    07:00 +10°C° 0 mm 4 mps 751 mmHg 59%
    08:00 +11°C° 0 mm 4 mps 752 mmHg 55%
    09:00 +12°C° 0 mm 3 mps 752 mmHg 51%
    10:00 +12°C° 0 mm 3 mps 751 mmHg 48%
    11:00 +13°C° 0 mm 3 mps 751 mmHg 45%
    12:00 +14°C° 0 mm 4 mps 750 mmHg 42%
    13:00 +14°C° 0 mm 4 mps 750 mmHg 41%
    14:00 +14°C° 0 mm 4 mps 749 mmHg 39%
    15:00 +14°C° 0 mm 5 mps 748 mmHg 38%
    16:00 +13°C° 0 mm 4 mps 748 mmHg 41%
    17:00 +12°C° 0 mm 4 mps 748 mmHg 44%
    18:00 +11°C° 0 mm 4 mps 748 mmHg 47%
    19:00 +10°C° 0 mm 5 mps 749 mmHg 46%
    20:00 +10°C° 0 mm 5 mps 749 mmHg 46%
    21:00 +9°C° 0 mm 6 mps 749 mmHg 45%
    22:00 +9°C° 0 mm 5 mps 749 mmHg 48%
    23:00 +8°C° 0 mm 5 mps 748 mmHg 51%

    Day after tomorrow, 23 January, Wednesday

    Time Temperature Precipitation Wind Pressure Humidity
    00:00 +8°C° 0 mm 4 mps 748 mmHg 54%
    01:00 +7°C° 0 mm 4 mps 748 mmHg 55%
    02:00 +7°C° 0 mm 4 mps 747 mmHg 56%
    03:00 +8°C° 0 mm 3 mps 746 mmHg 58%
    04:00 +7°C° 0 mm 3 mps 746 mmHg 59%
    05:00 +7°C° 0 mm 3 mps 746 mmHg 60%
    06:00 +7°C° 0 mm 2 mps 745 mmHg 61%
    07:00 +8°C° 0 mm 3 mps 745 mmHg 60%
    08:00 +8°C° 0 mm 4 mps 745 mmHg 59%
    09:00 +9°C° 0 mm 5 mps 745 mmHg 59%
    10:00 +10°C° 0 mm 6 mps 745 mmHg 53%
    11:00 +12°C° 0 mm 8 mps 744 mmHg 47%
    12:00 +13°C° 0 mm 9 mps 744 mmHg 42%
    13:00 +13°C° 0 mm 10 mps 743 mmHg 40%
    14:00 +13°C° 0 mm 11 mps 743 mmHg 39%
    15:00 +13°C° 0 mm 11 mps 743 mmHg 38%
    16:00 +12°C° 0 mm 10 mps 742 mmHg 42%
    17:00 +12°C° 0 mm 9 mps 742 mmHg 46%
    18:00 +11°C° 0 mm 8 mps 742 mmHg 50%
    19:00 +11°C° 0 mm 8 mps 741 mmHg 53%
    20:00 +11°C° 0 mm 7 mps 741 mmHg 55%
    21:00 +11°C° 0 mm 7 mps 741 mmHg 58%
    22:00 +10°C° 0 mm 8 mps 741 mmHg 62%
    23:00 +9°C° 0 mm 10 mps 740 mmHg 65%

    24 January, Thursday

    Time Temperature Precipitation Wind Pressure Humidity
    00:00 +9°C° 0 mm 11 mps 740 mmHg 69%
    01:00 +9°C° 0 mm 11 mps 739 mmHg 63%
    02:00 +9°C° 0 mm 12 mps 739 mmHg 57%
    03:00 +9°C° 0 mm 12 mps 739 mmHg 52%
    04:00 +8°C° 0 mm 12 mps 739 mmHg 52%
    05:00 +7°C° 0 mm 11 mps 739 mmHg 53%
    06:00 +6°C° 0 mm 10 mps 740 mmHg 54%
    07:00 +7°C° 0 mm 11 mps 740 mmHg 49%
    08:00 +7°C° 0 mm 13 mps 741 mmHg 44%
    09:00 +6°C° 0 mm 14 mps 742 mmHg 39%
    10:00 +7°C° 0 mm 16 mps 742 mmHg 36%
    11:00 +7°C° 0 mm 17 mps 742 mmHg 33%
    12:00 +8°C° 0 mm 19 mps 741 mmHg 30%
    13:00 +8°C° 0 mm 20 mps 741 mmHg 32%
    14:00 +8°C° 0 mm 20 mps 741 mmHg 33%
    15:00 +8°C° 0 mm 20 mps 741 mmHg 35%
    16:00 +7°C° 0 mm 20 mps 742 mmHg 38%
    17:00 +7°C° 0 mm 19 mps 743 mmHg 42%
    18:00 +6°C° 0 mm 18 mps 743 mmHg 46%
    19:00 +6°C° 0 mm 17 mps 744 mmHg 48%
    20:00 +6°C° 0 mm 16 mps 745 mmHg 50%
    21:00 +6°C° 0 mm 16 mps 745 mmHg 53%
    22:00 +6°C° 0 mm 15 mps 746 mmHg 55%
    23:00 +6°C° 0 mm 15 mps 746 mmHg 56%

    25 January, Friday

    Time Temperature Precipitation Wind Pressure Humidity
    00:00 +6°C° 0 mm 14 mps 747 mmHg 58%
    01:00 +7°C° 0 mm 13 mps 747 mmHg 58%
    02:00 +7°C° 0 mm 12 mps 747 mmHg 58%
    03:00 +6°C° 0 mm 11 mps 748 mmHg 58%
    04:00 +6°C° 0 mm 10 mps 748 mmHg 58%
    05:00 +6°C° 0 mm 10 mps 749 mmHg 58%
    06:00 +6°C° 0 mm 10 mps 750 mmHg 59%
    07:00 +6°C° 0 mm 10 mps 750 mmHg 56%
    08:00 +7°C° 0 mm 10 mps 751 mmHg 53%
    09:00 +8°C° 0 mm 10 mps 751 mmHg 50%
    10:00 +9°C° 0 mm 10 mps 751 mmHg 44%
    11:00 +11°C° 0 mm 11 mps 751 mmHg 39%
    12:00 +11°C° 0 mm 11 mps 752 mmHg 34%
    13:00 +11°C° 0 mm 11 mps 751 mmHg 35%
    14:00 +11°C° 0 mm 11 mps 751 mmHg 35%
    15:00 +11°C° 0 mm 10 mps 751 mmHg 36%
    16:00 +11°C° 0 mm 9 mps 752 mmHg 40%
    17:00 +10°C° 0 mm 8 mps 752 mmHg 43%
    18:00 +9°C° 0 mm 7 mps 753 mmHg 47%
    19:00 +9°C° 0 mm 6 mps 753 mmHg 51%
    20:00 +8°C° 0 mm 6 mps 753 mmHg 55%
    21:00 +8°C° 0 mm 5 mps 754 mmHg 59%
    22:00 +8°C° 0 mm 5 mps 754 mmHg 61%
    23:00 +8°C° 0 mm 6 mps 754 mmHg 63%

    26 January, Saturday

    Time Temperature Precipitation Wind Pressure Humidity
    00:00 +8°C° 0 mm 6 mps 754 mmHg 65%
    01:00 +7°C° 0 mm 6 mps 754 mmHg 66%
    02:00 +7°C° 0 mm 5 mps 754 mmHg 66%
    03:00 +7°C° 0 mm 5 mps 754 mmHg 66%
    04:00 +7°C° 0 mm 5 mps 754 mmHg 66%
    05:00 +6°C° 0 mm 5 mps 754 mmHg 66%
    06:00 +6°C° 0 mm 4 mps 754 mmHg 66%
    07:00 +8°C° 0 mm 5 mps 754 mmHg 61%
    08:00 +9°C° 0 mm 6 mps 755 mmHg 56%
    09:00 +10°C° 0 mm 6 mps 755 mmHg 51%
    10:00 +13°C° 0 mm 6 mps 755 mmHg 47%
    11:00 +14°C° 0 mm 6 mps 755 mmHg 42%
    12:00 +15°C° 0 mm 6 mps 755 mmHg 38%
    13:00 +16°C° 0 mm 6 mps 754 mmHg 37%
    14:00 +16°C° 0 mm 6 mps 754 mmHg 35%
    15:00 +16°C° 0 mm 6 mps 753 mmHg 34%
    16:00 +15°C° 0 mm 5 mps 753 mmHg 36%
    17:00 +14°C° 0 mm 4 mps 753 mmHg 39%
    18:00 +13°C° 0 mm 3 mps 753 mmHg 41%
    19:00 +14°C° 0 mm 2 mps 753 mmHg 43%
    20:00 +13°C° 0 mm 2 mps 753 mmHg 45%
    21:00 +12°C° 0 mm 1 mps 753 mmHg 47%
    22:00 +12°C° 0 mm 1 mps 753 mmHg 48%
    23:00 +10°C° 0 mm 0 mps 753 mmHg 49%
    Show more